Home   Weather   Amman   Past weeks
Flag for Jordan

Past Weather in Amman, Jordan — Yesterday and Last 2 Weeks

Now
52 °F

Fog.


Feels Like: 52 °F
Forecast: 57 / 48 °F
Wind: No wind

Location: Amman Airport

Current Time: Mar 23, 2019 at 2:33:17 am

Latest Report: Mar 23, 2019 at 1:00 am


Visibility: 2 mi

Pressure: 30.01 "Hg (27.20 "Hg at 816m altitude)

Humidity: 88%

Dew Point: 48 °F

Location of AmmanLocation

Past Weather in Amman — Graph

°F

Amman Temperature Yesterday

Maximum temperature yesterday: 68 °F (at 2:00 pm)
Minimum temperature yesterday: 52 °F (at 1:00 am)
Average temperature yesterday: 58 °F

High & Low Weather Summary for the Past Weeks

 TemperatureHumidityPressure
High72 °F (Mar 12, 2:00 pm)94% (Mar 14, 5:00 pm)30.33 "Hg (Mar 14, 5:00 pm)
Low41 °F (Mar 9, 5:00 am)12% (Mar 12, 1:00 pm)29.74 "Hg (Mar 13, 3:00 pm)
Average53 °F64%30.05 "Hg
* Reported Mar 8 1:00 am — Mar 23 1:00 am, Amman. Weather by CustomWeather, © 2019

Note: Actual official high and low records may vary slightly from our data, if they occured in-between our weather recording intervals... More about our weather records

Advertising

Amman Weather History for the Previous 24 Hours

Scroll right to see more
 ConditionsComfort  
Time TempWeatherWind HumidityBarometerVisibility
1:00 am
Sat, Mar 23
52 °FFog.No wind88%30.01 "Hg2 mi
12:00 am54 °FFog.3 mph82%30.04 "Hg3 mi
11:00 pm
Fri, Mar 22
54 °FFog.No wind88%30.04 "Hg3 mi
10:00 pm54 °FHaze.5 mph88%30.04 "Hg3 mi
9:00 pm55 °FHaze.7 mph82%30.04 "Hg3 mi
8:00 pm57 °FHaze.7 mph82%30.01 "Hg3 mi
7:00 pm59 °FHaze.6 mph72%29.98 "Hg3 mi
6:00 pm61 °FHaze.8 mph63%29.98 "Hg2 mi
5:00 pm63 °FHaze.10 mph64%29.98 "Hg2 mi
4:00 pm63 °FScattered clouds.9 mph64%29.98 "Hg2 mi
3:00 pm68 °FScattered clouds.3 mph38%29.98 "Hg3 mi
2:00 pm68 °FPassing clouds.No wind38%30.01 "Hg4 mi
1:00 pm66 °FHaze.No wind40%30.01 "Hg3 mi
12:00 pm64 °FHaze.No wind49%30.07 "Hg3 mi
11:00 am63 °FHaze.No wind56%30.07 "Hg3 mi
10:00 am63 °FHaze.3 mph49%30.07 "Hg3 mi
9:00 am59 °FHaze.3 mph55%30.07 "Hg3 mi
8:00 am55 °FClear.5 mph72%30.07 "Hg4 mi
7:00 am54 °FSunny.No wind72%30.04 "Hg10 mi
6:00 am52 °FSunny.No wind67%30.04 "Hg10 mi
5:00 am52 °FClear.5 mph67%30.04 "Hg10 mi
4:00 am54 °FClear.5 mph58%30.04 "Hg10 mi
3:00 am54 °FClear.3 mph67%30.04 "Hg10 mi
2:00 am52 °FClear.5 mph67%30.04 "Hg4 mi
Weather by CustomWeather, © 2019

See weather overview